Retour au catalogue

TELSTAR 1

ActifCommunicationsUNKNOWN
NORAD 340·PAYLOAD·🇺🇸 United States

Lancé Jul 10, 1962 depuis Cape Canaveral Space Force Station

Loading…

Prochains Passages (prochaines 24 heures)

TLE

FraisSource: Space-Track

Époque: Sep 12, 2026, 17:49 UTC

1 00340U 62029A   26255.74244267 -.00000104  00000-0 -59445-3 0  9999
2 00340  44.8039 157.1099 2427884 316.2741  54.3429  9.12894679140454

Suivez TELSTAR 1 en temps réel avec AllMySat

Download on the App Store